Regional Weather Roundup
Issued by NWS Grand Forks, ND

Home | Current Version | Previous Version | Graphics & Text | Print | Product List | Glossary On
Versions: 1 2 3 4 5 6 7 8 9 10 11 12 13 14 15 16 17 18 19 20 21 22 23 24 25 26 27 28 29 30 31 32 33 34 35 36 37 38 39 40 41 42 43 44 45 46 47 48 49 50
000
ASUS43 KFGF 190731
RWRFGF
PRAIRIE TO PINES  WEATHER ROUNDUP
NATIONAL WEATHER SERVICE EASTERN NORTH DAKOTA/GRAND FORKS ND
100 AM CST FRI DEC 19 2014

 **SATELLITE DATA USED TO AUGMENT SKY COVER AT AUTOMATED STATIONS**
 *****  WEATHER ACROSS EASTERN NORTH DAKOTA  *****

CITY           SKY/WX    TMP DP  RH WIND       PRES   REMARKS
GRAND FORKS    CLOUDY    20  17  88 S13       30.12F WCI   7
GRAND FRKS AFB CLOUDY    20  20  99 SE10      30.11F WCI   9
DEVILS LAKE    CLOUDY    23  16  74 S10       30.00S WCI  12
FARGO          CLOUDY    22  17  81 SE15      30.15S WCI   9
WAHPETON ARPT  CLOUDY    21  19  93 SE8       30.16F WCI  12
$$

 ***** WEATHER ACROSS CENTRAL AND WESTERN NORTH DAKOTA  *****

CITY           SKY/WX    TMP DP  RH WIND       PRES   REMARKS
BISMARCK       CLOUDY    27  25  92 S7        29.99F WCI  19
MINOT          CLOUDY    25  23  92 SE3       29.94F FOG
JAMESTOWN      CLOUDY    24  23  96 S9        30.04F FOG     WCI  14
MINOT AFB      CLOUDY    24  24 100 SE6       29.94F FOG     WCI  17
GARRISON         N/A     29  28  96 S8        29.93F WCI  21
WILLISTON      FOG       26  25  96 CALM      29.92S VSB 1/2
DICKINSON      PTCLDY    28  22  78 SW7       29.90F WCI  21
HETTINGER      CLEAR     22  19  89 W3        29.95F
$$

 *****  OTHER AIRPORT OBSERVATIONS IN OUR AREA  *****

CITY           SKY/WX    TMP DP  RH WIND       PRES   REMARKS
WALHALLA         N/A     19  19 100 SE12      30.09S FOG     WCI   7
GRAFTON AIRPOR NOT AVBL
VALLEY CITY AR CLOUDY    23  23 100 S9        30.07F FOG     WCI  13
CANDO          CLOUDY    23  23 100 S7        30.01S FOG     WCI  15
CAVALIER APRT  CLOUDY    19  19 100 S6        30.10F FOG     WCI  11
GWINNER        CLOUDY    27  27 100 MISG      30.12F
ROLLA          CLOUDY    21  21 100 S8        29.98F FOG     WCI  12
 ***** THE ABOVE OBSERVATIONS ARE NON NWS ARE NOT QUALITY
       CONTROLLED AND MAY MIS-REPORT RAIN FOR SNOW...
$$

  *****  WEATHER ACROSS NORTHERN MINNESOTA  *****

CITY           SKY/WX    TMP DP  RH WIND       PRES   REMARKS
FLAG ISLAND    CLOUDY    18  16  93 S13       30.16F WCI   4
WARROAD        CLOUDY    19  16  86 MISG      30.16S
ROSEAU         CLOUDY    19  16  86 S8        30.15F WCI   9
HALLOCK        CLOUDY    21  18  86 SE14      30.12F WCI   8
THF RVR FALLS  CLOUDY    19  18  93 S9        30.14F WCI   9
BAUDETTE       CLOUDY    19  14  81 S6        30.17F WCI  11
WASKISH        CLOUDY    19  18  93 CALM      30.18S
CROOKSTON      FAIR      21  19  93 S12       30.15F WCI   9
STEPHEN NDAWN    N/A     19  18  93 S12         N/A  WCI   7
GREENBUSH NDAW   N/A     19  18  93 S10         N/A  WCI   8
$$
  *****  WEATHER ACROSS CENTRAL AND WEST MINNESOTA  *****

CITY           SKY/WX    TMP DP  RH WIND       PRES   REMARKS
FOSSTON        CLOUDY    18  16  93 S6        30.16S WCI   9
BEMIDJI        CLOUDY    18  15  88 S7        30.16F WCI   9
PARK RAPIDS    CLOUDY    19  15  84 S8        30.17F WCI   9
ELBOW LAKE     FLURRIES  20  18  92 SE12      30.17F WCI   8
WADENA         CLOUDY    18  16  93 NW7       30.18S WCI   8
DETROIT LAKES  FLURRIES  21  19  93 SE8       30.16F WCI  12
MOORHEAD       CLOUDY    21  21 100 S12       30.16F WCI   9
FERGUS FALLS   LGT SNOW  19  16  86 S12       30.20F WCI   7
MORRIS MN      FAIR      21  19  93 SE10      30.18S FOG     WCI  10
STAPLES        FLURRIES  18  16  93 SE5       30.20S WCI  11
$$
  *****  WEATHER ELSEWHERE ACROSS MINNESOTA  *****

CITY           SKY/WX    TMP DP  RH WIND       PRES   REMARKS
DULUTH         FLURRIES  21  18  88 S9        30.21S WCI  11
INTRNTL FALLS  CLOUDY    21  17  84 S5        30.19F WCI  15
ELY            CLOUDY    21  18  86 S6        30.20F WCI  14
CLOQUET        CLOUDY    19  18  93 S5        30.23R WCI  13
WHEATON        CLOUDY    19  18  93 SE13      30.19S WCI   7
BRAINERD       CLOUDY    19  15  84 S6        30.22F WCI  11
HIBBING        CLOUDY    22  17  81 SW7       30.20S WCI  13
ALEXANDRIA     CLOUDY    20  16  84 SE8       30.19S WCI  10
SAINT CLOUD    CLOUDY    22  15  75 S7        30.24F WCI  13
MINNEAPOLIS    CLOUDY    20  15  81 SE5       30.28S WCI  13
$$

  *****  WEATHER ACROSS SOUTH DAKOTA  *****

CITY           SKY/WX    TMP DP  RH WIND       PRES   REMARKS
SIOUX FALLS    CLOUDY    28  25  88 S8        30.17F WCI  20
BROOKINGS      NOT AVBL
WATERTOWN      CLOUDY    25  24  96 S8        30.12S FOG     WCI  16
HURON          CLOUDY    27  24  89 S8        30.13F WCI  19
SISSETON         N/A     23  22  96 S9        30.14F WCI  13
ABERDEEN       CLOUDY    27  24  89 S10       30.11F WCI  17
MITCHELL       CLOUDY    29  26  89 S9        30.15F WCI  20
PIERRE         CLEAR     16  13  88 SE3       30.04F FOG
MOBRIDGE       CLEAR     22  20  92 S9        30.00S WCI  12
RAPID CITY     CLEAR     27  18  69 W5        30.00F WCI  22
$$

  *****  SOME WEATHER IN NEARBY STATES *****

CITY           SKY/WX    TMP DP  RH WIND       PRES   REMARKS
GLASGOW MT     MOCLDY    20  17  88 CALM      29.91S
GREAT FALLS MT PTCLDY    32  25  75 SW14      29.89F WCI  22
CHEYENNE WY    CLEAR     23  12  62 W8        30.06F WCI  14
SCOTTSBLUFF NE CLEAR      8   5  87 CALM      30.08S
OMAHA NE       CLOUDY    31  27  85 S8        30.25F WCI  23
DES MOINES IA  CLOUDY    28  23  81 S3        30.28S
DAVENPORT IA   FAIR      16  12  84 CALM      30.31R
CHICAGO IL     CLOUDY    27  22  81 NW7       30.26S WCI  19
EAU CLAIRE WI  CLOUDY    24  19  81 S3        30.27S
LA CROSSE WI   CLOUDY    26  18  71 W3        30.29F
$$

  *****  SOME NATIONAL WEATHER *****

CITY           SKY/WX    TMP DP  RH WIND       PRES   REMARKS
LA GUARDIA NY  CLOUDY    38  27  64 NW13      29.96S
RALEIGH NC     MOCLDY    39  31  72 CALM      30.10F
ATLANTA GA     MOCLDY    41  33  73 NW9       30.13S
NEW ORLEANS LA CLOUDY    58  53  84 E7        30.11F
OKLAHOMA CITY  CLOUDY    41  37  87 CALM      30.21R
ALBUQUERQUE NM PTCLDY    32  27  81 N3        30.16S
SALT LAKE CITY PTCLDY    32  26  78 SE8       30.19F WCI  25
LOS ANGELES CA CLEAR     56  50  80 CALM      30.22S
BOISE ID       CLOUDY    45  32  60 SE10      30.08R
SEATTLE WA     LGT RAIN  48  46  93 S8        29.78R
$$

*** WEATHER ACROSS MANITOBA...SASKATCHEWAN AND ONTARIO ***
                ***ONTARIO***

CITY           SKY/WX    TMP DP  RH WIND       PRES   REMARKS
GERALDTON      CLEAR    -11 -15  84 W2        30.25S
THUNDER BAY    CLEAR      0  -4  85 SW6       30.31S WCI -12
SIOUX LOOKOUT  CLOUDY    12   9  85 CALM      30.20F
TORONTO        CLOUDY    25  19  80 NW12G17   30.12R WCI  14
BIG TROUT LK   CLEAR      0  -4  85 W3        30.17S
PICKLE LAKE    NOT AVBL
DRYDEN         CLOUDY    18  16  93 S6        30.18S WCI   9
KENORA         CLOUDY    18  14  86 S12       30.16  WCI   5
$$
                *** MANITOBA***

CITY           SKY/WX    TMP DP  RH WIND       PRES   REMARKS
BRANDON        FLURRIES  19  18  93 SE5       30.01F WCI  13
DAUPHIN        FLURRIES  19  16  86 SW5       30.02S WCI  13
ISLAND LAKE    NOT AVBL
PILOT MOUND      N/A     21  19  93 S8          N/A  WCI  12
THE PAS        CLOUDY    16  14  93 S6        29.96  WCI   7
THOMPSON       FLURRIES   9   5  85 VRB2      29.98F
WINNIPEG       CLOUDY    19  16  86 S14       30.12F FOG     WCI   6
LYNN LAKE      FLURRIES  14  14 100 W6        29.87S WCI   5
CHURCHILL      FLURRIES   3   1  92 SW5       29.97  WCI  -6
GILLAM         LGT SNOW   7   3  85 SW7       30.02F WCI  -5
$$
                ***SASKATCHEWAN***

CITY           SKY/WX    TMP DP  RH WIND       PRES   REMARKS
ESTEVAN        LGT SNOW  27  25  93 SW8       29.92S FOG     WCI  18
KINDERSLEY     FOG       12   9  85 SW3       29.88S VSB 1/8
LLOYDMINSTER   FOG       12  10  92 S5        29.86F VSB 3/8 WCI   4
PRINCE ALBERT  FLURRIES  19  18  93 W7        29.91S WCI  10
REGINA         FOG       23  23 100 SW6       29.90S VSB 1/4 WCI  16
YORKTON        CLOUDY    19  18  93 SE6       29.91F FOG     WCI  11
N. BATTLEFORD  FOG       16  16 100 NW7       29.93S VSB 3/8 WCI   6
LA RONGE       CLOUDY    16  16 100 SW7       29.91R WCI   6
SASKATOON      CLOUDY    18  16  93 W5        29.93S FOG     WCI  11
SWIFT CURRENT  CLOUDY    19  18  93 W8        29.85S FOG     WCI   9
$$
NOTE: THESE ARE AUTOMATED STATIONS WITH LIMITED QUALITY CONTROL
      "FAIR" INDICATES FEW OR NO CLOUDS BELOW 12,000 FEET WITH NO
      SIGNIFICANT WEATHER AND/OR OBSTRUCTIONS TO VISIBILITY.
      SKY/WX - SKY CONDITION AND SIGNIFICANT WEATHER.
      TMP - AIR TEMPERATURE.    DP   - DEWPOINT TEMPERATURE.
      RH  - RELATIVE HUMIDITY.  PRES - PRESSURE.
      HX  - HEAT INDEX.         WCI  - WIND CHILL INDEX.
$



USA.gov is the U.S. government's official web portal to all federal, state and local government web resources and services.